User: anonymous   Login
Location: Unspecified
(0.0000°N, 0.0000°E)
Time: 03:22:45
(UTC+00:00)
Language:

STARLINK-32467 - Orbit

View from above orbital plane
View from above orbital plane
View from above satellite
View from above satellite

Ground track
Ground track

The orbit is defined by the following mean orbital elements,

1 61713U          26145.18498076 +.00000000 +00000-0 +48085-5 0 00002
2 61713  53.1598 106.3639 0001155  84.1411 275.9722 15.30194060    03
Epoch (UTC): 25 May 2026 04:26:22
Eccentricity: 0.0001155
inclination: 53.1598°
perigee height: 474 km
apogee height: 476 km
right ascension of ascending node: 106.3639°
argument of perigee: 84.1411°
revolutions per day: 15.30194060
mean anomaly at epoch: 275.9722°

The dashed part of the orbit path shows where the satellite is in the earth's shadow,  

DLR